SAS49M EKCH-EHAM

Flight info

Callsign SAS49M
Flight time 1h 8m
Altitude 38000
Route LANGO M611 ALASA DCT WANZA N872 KUBAT T200 BLUFA
Aircraft A20N/M-SDE3FGIJ1RWXY/ALB1

Departure

Time 2026-05-05 16:36
Airport Copenhagen Kastrup Airport (EKCH)

Arrival

Time 2026-05-05 17:44
Airport Amsterdam Airport Schiphol (EHAM)
Time Latitude Longitude Altitude Speed Heading
2026-05-05 16:05 55.62672 12.64444 26 ft 0 kts 97°
2026-05-05 16:23 55.62676 12.64395 26 ft 2 kts 97°
2026-05-05 16:24 55.62677 12.64369 26 ft 2 kts 97°
2026-05-05 16:24 55.62679 12.64342 26 ft 2 kts 97°
2026-05-05 16:24 55.62661 12.64311 26 ft 2 kts 20°
2026-05-05 16:25 55.62648 12.64299 26 ft 2 kts 24°
2026-05-05 16:25 55.62621 12.64274 26 ft 2 kts 30°
2026-05-05 16:25 55.62608 12.64260 26 ft 2 kts 32°
2026-05-05 16:26 55.62582 12.64231 26 ft 2 kts 32°
2026-05-05 16:26 55.62557 12.64203 26 ft 2 kts 38°
2026-05-05 16:27 55.62548 12.64181 26 ft 2 kts 69°
2026-05-05 16:27 55.62545 12.64155 26 ft 2 kts 95°
2026-05-05 16:27 55.62550 12.64130 25 ft 2 kts 121°
2026-05-05 16:27 55.62558 12.64109 26 ft 2 kts 122°
2026-05-05 16:28 55.62566 12.64086 25 ft 2 kts 123°
2026-05-05 16:28 55.62575 12.64064 25 ft 2 kts 123°
2026-05-05 16:28 55.62576 12.64059 26 ft 0 kts 122°
2026-05-05 16:28 55.62576 12.64060 25 ft 0 kts 122°
2026-05-05 16:30 55.62563 12.64096 25 ft 6 kts 122°
2026-05-05 16:30 55.62528 12.64194 26 ft 12 kts 122°
2026-05-05 16:31 55.62473 12.64331 26 ft 14 kts 127°
2026-05-05 16:31 55.62403 12.64490 26 ft 17 kts 122°
2026-05-05 16:31 55.62336 12.64678 26 ft 18 kts 122°
2026-05-05 16:31 55.62240 12.64791 26 ft 17 kts 189°
2026-05-05 16:32 55.62137 12.64685 26 ft 17 kts 213°
2026-05-05 16:32 55.62032 12.64559 25 ft 18 kts 213°
2026-05-05 16:32 55.61913 12.64508 26 ft 17 kts 177°
2026-05-05 16:32 55.61792 12.64545 27 ft 17 kts 169°
2026-05-05 16:33 55.61670 12.64560 26 ft 17 kts 207°
2026-05-05 16:33 55.61566 12.64436 26 ft 18 kts 212°
2026-05-05 16:33 55.61462 12.64318 27 ft 17 kts 212°
2026-05-05 16:33 55.61359 12.64196 27 ft 18 kts 212°
2026-05-05 16:34 55.61251 12.64076 27 ft 18 kts 212°
2026-05-05 16:34 55.61141 12.63948 26 ft 19 kts 211°
2026-05-05 16:34 55.61024 12.63817 24 ft 20 kts 214°
2026-05-05 16:34 55.60904 12.63676 23 ft 21 kts 213°
2026-05-05 16:35 55.60782 12.63609 22 ft 18 kts 141°
2026-05-05 16:35 55.60703 12.63772 22 ft 16 kts 129°
2026-05-05 16:35 55.60692 12.63881 21 ft 0 kts 58°
2026-05-05 16:35 55.60717 12.63932 21 ft 28 kts 43°
2026-05-05 16:36 55.61063 12.64469 26 ft 101 kts 40°
2026-05-05 16:36 55.61738 12.65514 28 ft 157 kts 38°
2026-05-05 16:36 55.62587 12.66828 624 ft 161 kts 38°
2026-05-05 16:36 55.63419 12.68126 1341 ft 163 kts 39°
2026-05-05 16:37 55.64295 12.69488 1841 ft 177 kts 39°
2026-05-05 16:37 55.65261 12.70969 2299 ft 193 kts 38°
2026-05-05 16:37 55.66330 12.72579 2738 ft 213 kts 38°
2026-05-05 16:37 55.67525 12.74355 3183 ft 235 kts 39°
2026-05-05 16:38 55.68811 12.76268 3781 ft 251 kts 39°
2026-05-05 16:38 55.69971 12.78585 4572 ft 261 kts 61°
2026-05-05 16:38 55.70425 12.81664 5445 ft 269 kts 88°
2026-05-05 16:38 55.70023 12.84940 6287 ft 277 kts 116°
2026-05-05 16:39 55.68771 12.87582 7157 ft 283 kts 146°
2026-05-05 16:39 55.66983 12.89045 7993 ft 285 kts 163°
2026-05-05 16:39 55.65125 12.90169 8824 ft 290 kts 164°
2026-05-05 16:39 55.63210 12.91328 9713 ft 293 kts 166°
2026-05-05 16:40 55.61212 12.91796 10456 ft 292 kts 189°
2026-05-05 16:40 55.59276 12.90804 10931 ft 299 kts 212°
2026-05-05 16:40 55.57639 12.88463 11379 ft 311 kts 229°
2026-05-05 16:40 55.56143 12.85637 11819 ft 325 kts 229°
2026-05-05 16:41 55.54588 12.82746 12598 ft 329 kts 229°
2026-05-05 16:41 55.53016 12.79758 13445 ft 329 kts 234°
2026-05-05 16:41 55.51888 12.76258 14253 ft 328 kts 250°
2026-05-05 16:41 55.51373 12.72361 15061 ft 329 kts 264°
2026-05-05 16:42 55.51213 12.68389 15784 ft 332 kts 266°
2026-05-05 16:42 55.51069 12.64323 16536 ft 335 kts 266°
2026-05-05 16:42 55.50921 12.60184 17125 ft 342 kts 266°
2026-05-05 16:42 55.50767 12.55989 17557 ft 350 kts 266°
2026-05-05 16:43 55.50605 12.51669 18217 ft 353 kts 266°
2026-05-05 16:43 55.50442 12.47387 18889 ft 356 kts 266°
2026-05-05 16:43 55.50274 12.43037 19516 ft 359 kts 265°
2026-05-05 16:43 55.50102 12.38641 20157 ft 362 kts 265°
2026-05-05 16:44 55.49926 12.34213 20712 ft 365 kts 265°
2026-05-05 16:44 55.49734 12.29804 21302 ft 367 kts 262°
2026-05-05 16:44 55.49172 12.25414 21892 ft 371 kts 252°
2026-05-05 16:44 55.48130 12.21256 22447 ft 375 kts 242°
2026-05-05 16:45 55.46674 12.17436 23027 ft 379 kts 236°
2026-05-05 16:45 55.45101 12.13719 23577 ft 381 kts 235°
2026-05-05 16:45 55.43499 12.09973 24185 ft 382 kts 235°
2026-05-05 16:45 55.41918 12.06287 24732 ft 383 kts 235°
2026-05-05 16:46 55.40311 12.02543 25209 ft 386 kts 235°
2026-05-05 16:46 55.38699 11.98791 25673 ft 389 kts 235°
2026-05-05 16:46 55.37069 11.94999 26127 ft 392 kts 235°
2026-05-05 16:46 55.35419 11.91169 26565 ft 394 kts 235°
2026-05-05 16:47 55.33772 11.87348 26998 ft 396 kts 235°
2026-05-05 16:47 55.32104 11.83487 27416 ft 398 kts 235°
2026-05-05 16:47 55.30433 11.79625 27862 ft 399 kts 235°
2026-05-05 16:47 55.28772 11.75793 28418 ft 398 kts 235°
2026-05-05 16:48 55.27091 11.71924 28983 ft 396 kts 235°
2026-05-05 16:48 55.25477 11.68121 29503 ft 394 kts 237°
2026-05-05 16:48 55.23959 11.64164 30006 ft 392 kts 239°
2026-05-05 16:48 55.22496 11.60185 30483 ft 391 kts 239°
2026-05-05 16:49 55.21022 11.56204 30946 ft 390 kts 239°
2026-05-05 16:49 55.19554 11.52244 31380 ft 389 kts 239°
2026-05-05 16:49 55.18072 11.48250 31803 ft 389 kts 239°
2026-05-05 16:49 55.16618 11.44335 32201 ft 388 kts 239°
2026-05-05 16:50 55.15152 11.40392 32582 ft 387 kts 239°
2026-05-05 16:50 55.13695 11.36478 32952 ft 387 kts 239°
2026-05-05 16:50 55.12232 11.32556 33314 ft 386 kts 238°
2026-05-05 16:50 55.10775 11.28657 33671 ft 386 kts 238°
2026-05-05 16:51 55.09316 11.24756 34018 ft 385 kts 238°
2026-05-05 16:51 55.07859 11.20864 34359 ft 385 kts 238°
2026-05-05 16:51 55.06403 11.16982 34684 ft 384 kts 238°
2026-05-05 16:51 55.04932 11.13068 34946 ft 384 kts 238°
2026-05-05 16:52 55.03476 11.09200 35184 ft 384 kts 238°
2026-05-05 16:52 55.02014 11.05326 35405 ft 384 kts 238°
2026-05-05 16:52 55.00550 11.01453 35619 ft 384 kts 238°
2026-05-05 16:52 54.99089 10.97590 35814 ft 384 kts 238°
2026-05-05 16:53 54.97681 10.93634 35992 ft 384 kts 241°
2026-05-05 16:53 54.96402 10.89583 36140 ft 384 kts 243°
2026-05-05 16:53 54.95255 10.85451 36272 ft 385 kts 246°
2026-05-05 16:53 54.94217 10.81145 36405 ft 386 kts 249°
2026-05-05 16:54 54.93319 10.76779 36584 ft 387 kts 252°
2026-05-05 16:54 54.92545 10.72270 36772 ft 388 kts 255°
2026-05-05 16:54 54.91867 10.67792 36945 ft 389 kts 255°
2026-05-05 16:54 54.91185 10.63275 37117 ft 390 kts 255°
2026-05-05 16:55 54.90491 10.58686 37283 ft 391 kts 255°
2026-05-05 16:55 54.89801 10.54134 37442 ft 391 kts 255°
2026-05-05 16:55 54.89109 10.49579 37595 ft 393 kts 255°
2026-05-05 16:55 54.88419 10.45043 37747 ft 393 kts 255°
2026-05-05 16:56 54.87714 10.40441 37877 ft 394 kts 255°
2026-05-05 16:56 54.87010 10.35839 37892 ft 396 kts 255°
2026-05-05 16:56 54.85589 10.26607 37896 ft 397 kts 254°
2026-05-05 16:57 54.84169 10.17419 37888 ft 397 kts 254°
2026-05-05 16:57 54.82732 10.08214 37891 ft 397 kts 253°
2026-05-05 16:58 54.80953 9.99217 37897 ft 397 kts 248°
2026-05-05 16:58 54.78600 9.90489 37897 ft 397 kts 242°
2026-05-05 16:59 54.75721 9.82147 37895 ft 397 kts 239°
2026-05-05 16:59 54.72762 9.73996 37890 ft 398 kts 239°
2026-05-05 17:00 54.69823 9.65932 37895 ft 399 kts 239°
2026-05-05 17:00 54.66879 9.57886 37898 ft 398 kts 239°
2026-05-05 17:01 54.63935 9.49870 37894 ft 397 kts 238°
2026-05-05 17:01 54.60983 9.41861 37892 ft 398 kts 239°
2026-05-05 17:02 54.58018 9.33843 37890 ft 397 kts 238°
2026-05-05 17:02 54.55049 9.25839 37891 ft 398 kts 238°
2026-05-05 17:03 54.52087 9.17881 37888 ft 397 kts 238°
2026-05-05 17:03 54.49091 9.09851 37892 ft 398 kts 238°
2026-05-05 17:04 54.46078 9.01807 37894 ft 397 kts 238°
2026-05-05 17:04 54.43061 8.93783 37891 ft 397 kts 238°
2026-05-05 17:05 54.40066 8.85839 37895 ft 397 kts 238°
2026-05-05 17:05 54.37029 8.77803 37890 ft 398 kts 238°
2026-05-05 17:06 54.33970 8.69746 37889 ft 397 kts 238°
2026-05-05 17:06 54.30936 8.61778 37887 ft 397 kts 238°
2026-05-05 17:07 54.27886 8.53792 37895 ft 398 kts 237°
2026-05-05 17:07 54.24802 8.45863 37898 ft 399 kts 235°
2026-05-05 17:08 54.21317 8.38403 37891 ft 408 kts 230°
2026-05-05 17:08 54.17257 8.31396 37897 ft 415 kts 225°
2026-05-05 17:09 54.12993 8.24460 37890 ft 420 kts 225°
2026-05-05 17:09 54.08684 8.17474 37899 ft 421 kts 224°
2026-05-05 17:10 54.04417 8.10592 37898 ft 422 kts 225°
2026-05-05 17:10 54.00182 8.03780 37895 ft 422 kts 224°
2026-05-05 17:11 53.95874 7.96874 37891 ft 421 kts 225°
2026-05-05 17:11 53.91582 7.90015 37889 ft 421 kts 225°
2026-05-05 17:12 53.87331 7.83240 37895 ft 422 kts 224°
2026-05-05 17:12 53.83009 7.76376 37896 ft 422 kts 224°
2026-05-05 17:13 53.78672 7.69509 37898 ft 422 kts 224°
2026-05-05 17:13 53.74306 7.62618 37901 ft 422 kts 224°
2026-05-05 17:14 53.70034 7.55893 37906 ft 422 kts 224°
2026-05-05 17:14 53.65756 7.49179 37897 ft 423 kts 224°
2026-05-05 17:15 53.61391 7.42345 37886 ft 422 kts 224°
2026-05-05 17:15 53.57000 7.35494 37897 ft 423 kts 224°
2026-05-05 17:16 53.52662 7.28749 37907 ft 423 kts 223°
2026-05-05 17:16 53.48333 7.22033 37901 ft 423 kts 223°
2026-05-05 17:17 53.46181 7.18700 37566 ft 426 kts 223°
2026-05-05 17:17 53.43956 7.15262 36987 ft 426 kts 223°
2026-05-05 17:17 53.41766 7.11883 36513 ft 422 kts 223°
2026-05-05 17:17 53.39614 7.08569 36065 ft 420 kts 223°
2026-05-05 17:18 53.37469 7.05267 35526 ft 419 kts 223°
2026-05-05 17:18 53.35364 7.02033 35074 ft 415 kts 223°
2026-05-05 17:18 53.33215 6.98851 34344 ft 414 kts 220°
2026-05-05 17:18 53.30978 6.95837 33555 ft 413 kts 219°
2026-05-05 17:19 53.28752 6.92856 32871 ft 411 kts 219°
2026-05-05 17:19 53.26552 6.89910 32226 ft 407 kts 219°
2026-05-05 17:19 53.24334 6.86946 31584 ft 404 kts 219°
2026-05-05 17:19 53.22170 6.84058 30954 ft 401 kts 219°
2026-05-05 17:20 53.19982 6.81147 30274 ft 400 kts 219°
2026-05-05 17:20 53.17797 6.78245 29512 ft 401 kts 219°
2026-05-05 17:20 53.15648 6.75396 28692 ft 404 kts 219°
2026-05-05 17:20 53.13441 6.72473 27824 ft 408 kts 219°
2026-05-05 17:21 53.11208 6.69522 26994 ft 409 kts 219°
2026-05-05 17:21 53.09003 6.66609 26415 ft 406 kts 219°
2026-05-05 17:21 53.06794 6.63694 25835 ft 403 kts 219°
2026-05-05 17:22 53.02427 6.57942 24677 ft 398 kts 219°
2026-05-05 17:22 53.00292 6.55134 24113 ft 396 kts 219°
2026-05-05 17:22 52.98122 6.52285 23537 ft 395 kts 219°
2026-05-05 17:22 52.95984 6.49481 22969 ft 393 kts 219°
2026-05-05 17:23 52.93856 6.46694 22441 ft 391 kts 219°
2026-05-05 17:23 52.91739 6.43930 21918 ft 388 kts 219°
2026-05-05 17:23 52.89605 6.41145 21379 ft 386 kts 219°
2026-05-05 17:23 52.87588 6.38517 20876 ft 385 kts 219°
2026-05-05 17:24 52.85590 6.35850 20375 ft 383 kts 221°
2026-05-05 17:24 52.83699 6.32833 19864 ft 380 kts 227°
2026-05-05 17:24 52.81989 6.29462 19358 ft 378 kts 233°
2026-05-05 17:24 52.80527 6.26071 18855 ft 376 kts 234°
2026-05-05 17:25 52.79026 6.22488 18328 ft 375 kts 235°
2026-05-05 17:25 52.78036 6.20117 17983 ft 374 kts 235°
2026-05-05 17:25 52.76069 6.15428 17286 ft 371 kts 235°
2026-05-05 17:25 52.74606 6.11952 16772 ft 370 kts 235°
2026-05-05 17:26 52.73133 6.08462 16259 ft 368 kts 235°
2026-05-05 17:26 52.71685 6.05039 15739 ft 366 kts 235°
2026-05-05 17:26 52.70299 6.01770 15243 ft 365 kts 236°
2026-05-05 17:26 52.68900 5.98473 14755 ft 363 kts 236°
2026-05-05 17:27 52.67455 5.95070 14271 ft 361 kts 236°
2026-05-05 17:27 52.66031 5.91727 13783 ft 359 kts 236°
2026-05-05 17:27 52.64603 5.88373 13291 ft 357 kts 236°
2026-05-05 17:27 52.63183 5.85038 12795 ft 355 kts 236°
2026-05-05 17:28 52.61769 5.81725 12297 ft 354 kts 236°
2026-05-05 17:28 52.60368 5.78446 11810 ft 352 kts 236°
2026-05-05 17:28 52.58972 5.75185 11310 ft 351 kts 236°
2026-05-05 17:28 52.57584 5.71947 10791 ft 348 kts 236°
2026-05-05 17:29 52.56251 5.68842 10484 ft 342 kts 236°
2026-05-05 17:29 52.55042 5.66034 10313 ft 330 kts 236°
2026-05-05 17:29 52.53743 5.63019 10141 ft 317 kts 236°
2026-05-05 17:29 52.52493 5.60122 10035 ft 304 kts 236°
2026-05-05 17:30 52.51339 5.57432 9892 ft 293 kts 237°
2026-05-05 17:30 52.50282 5.54676 9838 ft 287 kts 240°
2026-05-05 17:30 52.49339 5.52111 9708 ft 286 kts 240°
2026-05-05 17:30 52.48350 5.49413 9302 ft 287 kts 240°
2026-05-05 17:31 52.47331 5.46628 8887 ft 287 kts 240°
2026-05-05 17:31 52.46369 5.44007 8520 ft 287 kts 240°
2026-05-05 17:31 52.45345 5.41227 8143 ft 286 kts 240°
2026-05-05 17:31 52.44326 5.38467 7780 ft 285 kts 240°
2026-05-05 17:32 52.43388 5.35928 7461 ft 283 kts 240°
2026-05-05 17:32 52.42446 5.33380 7102 ft 282 kts 239°
2026-05-05 17:32 52.41615 5.31135 6786 ft 281 kts 239°
2026-05-05 17:32 52.40669 5.28581 6461 ft 279 kts 239°
2026-05-05 17:33 52.39643 5.25814 6077 ft 278 kts 239°
2026-05-05 17:33 52.38691 5.23250 5708 ft 278 kts 239°
2026-05-05 17:33 52.37723 5.20648 5326 ft 277 kts 239°
2026-05-05 17:33 52.36704 5.17910 4949 ft 277 kts 240°
2026-05-05 17:34 52.35777 5.15426 4597 ft 276 kts 240°
2026-05-05 17:34 52.34755 5.12685 4400 ft 274 kts 240°
2026-05-05 17:34 52.33797 5.10116 4395 ft 278 kts 240°
2026-05-05 17:34 52.32811 5.07542 4393 ft 278 kts 238°
2026-05-05 17:35 52.31743 5.04891 4385 ft 279 kts 238°
2026-05-05 17:35 52.30724 5.02384 4392 ft 279 kts 238°
2026-05-05 17:35 52.29650 4.99752 4393 ft 279 kts 238°
2026-05-05 17:35 52.28603 4.97183 4385 ft 279 kts 238°
2026-05-05 17:36 52.27582 4.94678 4390 ft 279 kts 238°
2026-05-05 17:36 52.26514 4.92054 4393 ft 279 kts 238°
2026-05-05 17:36 52.25440 4.89417 4396 ft 279 kts 238°
2026-05-05 17:36 52.24377 4.86806 4397 ft 279 kts 238°
2026-05-05 17:37 52.23307 4.84178 4399 ft 279 kts 238°
2026-05-05 17:37 52.22240 4.81562 4282 ft 275 kts 238°
2026-05-05 17:37 52.21187 4.78982 3894 ft 275 kts 238°
2026-05-05 17:37 52.20139 4.76428 3630 ft 271 kts 238°
2026-05-05 17:38 52.19073 4.73836 3131 ft 277 kts 238°
2026-05-05 17:38 52.17993 4.71225 2748 ft 277 kts 238°
2026-05-05 17:38 52.16917 4.68644 2403 ft 276 kts 238°
2026-05-05 17:38 52.15837 4.66068 2067 ft 274 kts 238°
2026-05-05 17:39 52.14928 4.63408 1967 ft 266 kts 257°
2026-05-05 17:39 52.14814 4.60579 1966 ft 240 kts 288°
2026-05-05 17:39 52.15508 4.58348 1960 ft 212 kts 321°
2026-05-05 17:39 52.16633 4.56854 1986 ft 205 kts 330°
2026-05-05 17:40 52.17816 4.55581 1984 ft 203 kts 336°
2026-05-05 17:40 52.19098 4.55038 1954 ft 183 kts 11°
2026-05-05 17:40 52.20212 4.55692 2021 ft 163 kts 29°
2026-05-05 17:40 52.21188 4.56642 2029 ft 163 kts 32°
2026-05-05 17:41 52.22133 4.57630 1997 ft 162 kts 33°
2026-05-05 17:41 52.23011 4.58732 1987 ft 162 kts 46°
2026-05-05 17:41 52.23685 4.60162 1957 ft 165 kts 52°
2026-05-05 17:41 52.24309 4.61695 1726 ft 161 kts 54°
2026-05-05 17:42 52.24887 4.63202 1500 ft 154 kts 54°
2026-05-05 17:42 52.25428 4.64627 1298 ft 139 kts 55°
2026-05-05 17:42 52.25898 4.65868 1096 ft 125 kts 52°
2026-05-05 17:42 52.26352 4.67047 951 ft 123 kts 55°
2026-05-05 17:43 52.26790 4.68193 801 ft 124 kts 52°
2026-05-05 17:43 52.27228 4.69329 657 ft 123 kts 57°
2026-05-05 17:43 52.27679 4.70502 484 ft 123 kts 58°
2026-05-05 17:43 52.28126 4.71663 323 ft 123 kts 56°
2026-05-05 17:44 52.28565 4.72814 151 ft 122 kts 57°
2026-05-05 17:44 52.28971 4.73908 19 ft 123 kts 53°
2026-05-05 17:44 52.29358 4.74868 0 ft 86 kts 58°
2026-05-05 17:44 52.29571 4.75440 0 ft 40 kts 58°
2026-05-05 17:45 52.29709 4.75731 0 ft 34 kts 35°
2026-05-05 17:45 52.29882 4.75892 0 ft 20 kts 27°
2026-05-05 17:45 52.29967 4.75964 0 ft 14 kts 31°
2026-05-05 17:45 52.30023 4.76078 0 ft 14 kts 57°
2026-05-05 17:46 52.30079 4.76218 0 ft 15 kts 57°
2026-05-05 17:46 52.30132 4.76352 0 ft 15 kts 59°
2026-05-05 17:46 52.30187 4.76496 0 ft 16 kts 57°
2026-05-05 17:46 52.30253 4.76657 0 ft 16 kts 55°
2026-05-05 17:47 52.30335 4.76717 0 ft 15 kts 321°
2026-05-05 17:47 52.30363 4.76587 0 ft 9 kts 311°
2026-05-05 17:47 52.30421 4.76523 0 ft 9 kts 329°
2026-05-05 17:47 52.30475 4.76470 0 ft 7 kts 329°
2026-05-05 17:48 52.30512 4.76449 0 ft 4 kts 28°
2026-05-05 17:48 52.30528 4.76489 0 ft 4 kts 61°
2026-05-05 17:48 52.30539 4.76518 0 ft 0 kts 59°